World > North America > United States > New York

Hourly Woodbourne, NY Regional Weather

Feedback E-mail the Weather

Latest News

Woodbourne, NY Weather Maps

°F °C°F °C
Woodbourne Weather Map
UTC Time: 5/28/2022, 09:39
Your Time:

Woodbourne, NY Regional Weather

Expires:202205281000;;694497
ASUS41 KBGM 280910
RWRBGM

REGIONAL WEATHER ROUNDUP
NATIONAL WEATHER SERVICE BINGHAMTON NY
500 AM EDT SAT MAY 28 2022

Note: "fair" indicates few or no clouds below 12,000 feet with no
significant weather and/or obstructions to visibility.

* = Station(s) that does not report precipitation, such as rain, 
snow, etc, also no thunder or fog.


NYZ009-015>018-022>025-036-037-044>046-055>057-062-281000
...Central New York...
  
CITY           SKY/WX    TMP DP  RH WIND       PRES   REMARKS
Binghamton     MOCLDY    59  59 100 NW6       29.70F                  
Cortland       FAIR      59  59 100 CALM      29.70F                  
Dansville      CLOUDY    60  59  96 CALM      29.72S                  
Elmira         CLOUDY    60  59  96 W5        29.71R                  
Endicott       PTSUNNY   61  61 100 SW3       29.70R                  
Ithaca         MOCLDY    60  60 100 E3        29.69F                  
Hamilton       CLOUDY   N/A N/A N/A CALM      29.70                   
Monticello     FOG       62  62 100 S3        29.72S VSB 1/2          
Norwich        CLOUDY    59  59 100 CALM      29.72F                  
Oneonta        CLOUDY    61  61 100 CALM      29.71F                  
Penn Yan       LGT RAIN  61  56  83 SW10      29.70F                  
Rome           FOG       58  57  97 CALM      29.70S VSB<1/4          
Seneca Falls   PTSUNNY   59  57  94 N5        29.68F                  
Sidney         MOCLDY    59  59 100 CALM      29.70S                  
Skaneateles    CLOUDY    61  61 100 CALM      29.70F                  
Syracuse       MOCLDY    59  58  96 CALM      29.69R                  
$$
 

SKY/WX - Weather  TMP - Temperature  DP - Dew Point  RH - Humidity
WIND - Wind Direction/Speed PRES - Barometric Pressure VSB - Visibility
WCI - Wind Chill Index E13G22 Wind - East Wind 13 mph/Gusts of 22 mph

Trending Headlines

Woodbourne Radar Loop



Woodbourne Quick Facts


National Two Day Weather Forecast


E-mail the Woodbourne Weather Forecast

Voice your opinion or tell us about page issues...